Probability
0 0 0 0 0 0 0 0 0 0 0 0 0 0 0 0 0 0 0 0 0 0 0 0 0 0 0 0 0 0 0 0 0 0 0 0 0 0 0 0 0 0 0 0
0 0 0 0 0 0 0 0 0 0 0 0 0 0 0 0 0 0 0 0 0 0 0 0 0 0 0 0 0 0 0 0 0 0 0 0 0 0 0 0 0 0 0 0
0 0 0 0 0 0 0 0 0 0 0 0 0 0 0 0 0 0 0 0 0 0 0 0 0 0 0 0 0 0 0 0 0 0 0 0 0 0 0 0 0 0 0 0
0 0 0 0 0 0 0 0 0 0 0 0 0 0 0 0 0 0 0 0 0 0 0 0 0 0 0 0 0 0 0 0 0 0 0 0 0 0 0 0 0 0 0 0
0 0 0 0 0 0 0 0 0 0 0 0 0 0 0 0 0 0 0 0 0 0 0 0 0 0 0 0 0 0 0 0 0 0 0 0 0 0 0 0 0 0 0 0
0 0 0 0 0 0 0 0 0 0 0 0 0 0 0 0 0 0 0 0 0 0 0 0 0 0 0 0 0 0 0 0 0 0 0 0 0 0 0 0 0 0 0 0
0 0 0 0 0 0 0 0 0 0 0 0 0 0 0 0 0 0 0 0 0 0 0 0 0 0 0 0 0 0 0 0 0 0 0 0 0 0 0 0 0 0 0 0
0 0 0 0 0 0 0 0 0 0 0 0 0 0 0 0 0 0 0 0 0 0 0 0 0 0 0 0 0 0 0 0 0 0 0 0 0 0 0 0 0 0 0 0
0 0 0 0 0 0 0 0 0 0 0 0 0 0 0 0 0 0 0 0 0 0 0 0 0 0 0 0 0 0 0 0 0 0 0 0 0 0 0 0 0 0 0 0
0 0 0 0 0 0 0 0 0 0 0 0 0 0 0 0 0 0 0 0 0 0 0 0 0 0 0 0 0 0 0 0 0 0 0 0 0 0 0 0 0 0 0 0
0 0 0 0 0 0 0 0 0 0 0 0 0 0 0 0 0 0 0 0 0 0 0 0 0 0 0 0 0 0 0 0 0 0 0 0 0 0 0 0 0 0 0 0
0 0 0 0 0 0 0 0 0 0 0 0 0 0 0 0 0 0 0 0 0 0 0 0 0 0 0 0 0 0 0 0 0 0 0 0 0 0 0 0 0 0 0 0
0 0 0 0 0 0 0 0 0 0 0 0 0 0 0 0 0 0 0 0 0 0 0 0 0 0 0 0 0 0 0 0 0 0 0 0 0 0 0 0 0 0 0 0
0 0 0 0 0 0 0 0 0 0 0 0 0 0 0 0 0 0 0 0 0 0 0 0 0 0 0 0 0 0 0 0 0 0 0 0 0 0 0 0 0 0 0 0
0 0 0 0 0 0 0 0 0 0 0 0 0 0 0 0 0 0 0 0 0 0 0 0 0 0 0 0 0 0 0 0 0 0 0 0 0 0 0 0 0 0 0 0
0 0 0 0 0 0 0 0 0 0 0 0 0 0 0 0 0 0 0 0 0 0 0 0 0 0 0 0 0 0 0 0 0 0 0 0 0 0 0 0 0 0 0 0
0 0 0 0 0 0 0 0 0 0 0 0 0 0 0 0 0 0 0 0 0 0 0 0 0 0 0 0 0 0 0 0 0 0 0 0 0 0 0 0 0 0 0 0
0 0 0 0 0 0 0 0 0 0 0 0 0 0 0 0 0 0 0 0 0 0 0 0 0 0 0 0 0 0 0 0 0 0 0 0 0 0 0 0 0 0 0 0
0 0 0 0 0 0 0 0 0 0 0 0 0 0 0 0 0 0 0 0 0 0 0 0 0 0 0 0 0 0 0 0 0 0 0 0 0 0 0 0 0 0 0 0
0 0 0 0 0 0 0 0 0 0 0 0 0 0 0 0 0 0 0 0 0 0 0 0 0 0 0 0 0 0 0 0 0 0 0 0 0 0 0 0 0 0 0 0
0 0 0 0 0 0 0 0 0 0 0 0 0 0 0 0 0 0 0 0 0 0 0 0 0 0 0 0 0 0 0 0 0 0 0 0 0 0 0 0 0 0 0 0
0 0 0 0 0 0 0 0 0 0 0 0 0 0 0 0 0 0 0 0 0 0 0 0 0 0 0 0 0 0 0 0 0 0 0 0 0 0 0 0 0 0 0 0
0 0 0 0 0 0 0 0 0 0 0 0 0 0 0 0 0 0 0 0 0 0 0 0 0 0 0 0 0 0 0 0 0 0 0 0 0 0 0 0 0 0 0 0
0 0 0 0 0 0 0 0 0 0 0 0 0 0 0 0 0 0 0 0 0 0 0 0 0 0 0 0 0 0 0 0 0 0 0 0 0 0 0 0 0 0 0 0
0 0 0 0 0 0 0 0 0 0 0 0 0 0 0 0 0 0 0 0 0 0 0 0 0 0 0 0 0 0 0 0 0 0 0 0 0 0 0 0 0 0 0 0
0 0 0 0 0 0 0 0 0 0 0 0 0 0 0 0 0 0 0 0 0 0 0 0 0 0 0 0 0 0 0 0 0 0 0 0 0 0 0 0 0 0 0 0
Height
5842 5842 5840 5839 5838 5838 5836 5835 5833 5831 5829 5827 5825 5824 5823 5821 5818 5816 5814 5811 5810 5808 5805 5803 5801 5799 5797 5795 5793 5791 5789 5787 5785 5783 5781 5780 5778 5777 5775 5773 5770 5767 5764 5761
5839 5838 5837 5836 5835 5834 5832 5831 5829 5827 5824 5823 5821 5820 5819 5816 5814 5812 5809 5807 5805 5802 5800 5798 5796 5793 5791 5789 5787 5784 5782 5780 5777 5775 5773 5771 5769 5767 5765 5762 5759 5756 5753 5750
5836 5836 5834 5833 5831 5830 5828 5827 5825 5824 5821 5818 5817 5816 5815 5812 5810 5808 5805 5802 5800 5797 5795 5792 5790 5787 5785 5782 5780 5777 5775 5772 5769 5767 5764 5762 5759 5757 5754 5751 5748 5745 5742 5738
5832 5832 5831 5829 5828 5826 5825 5823 5821 5820 5818 5815 5813 5811 5810 5808 5806 5803 5801 5797 5794 5792 5789 5786 5783 5781 5778 5775 5772 5770 5767 5764 5761 5758 5755 5752 5749 5746 5743 5739 5736 5733 5729 5726
5829 5828 5827 5825 5824 5823 5821 5819 5818 5816 5813 5812 5809 5807 5805 5803 5801 5798 5796 5792 5789 5786 5783 5780 5777 5774 5771 5768 5765 5762 5758 5755 5752 5749 5745 5742 5739 5735 5732 5728 5724 5720 5716 5712
5825 5824 5823 5822 5820 5819 5817 5815 5813 5812 5810 5808 5805 5803 5800 5797 5795 5792 5790 5787 5783 5780 5777 5773 5770 5767 5763 5760 5756 5753 5750 5746 5742 5739 5735 5731 5728 5724 5720 5716 5711 5707 5703 5698
5822 5821 5819 5818 5816 5815 5813 5811 5809 5807 5805 5803 5800 5798 5795 5791 5789 5786 5784 5781 5778 5774 5771 5767 5763 5759 5756 5752 5748 5744 5741 5737 5733 5728 5724 5720 5716 5711 5707 5702 5698 5693 5688 5684
5817 5817 5815 5813 5812 5810 5808 5807 5805 5802 5800 5799 5796 5793 5790 5786 5783 5780 5778 5775 5771 5768 5764 5760 5756 5752 5748 5744 5740 5736 5731 5727 5722 5718 5713 5708 5703 5698 5693 5688 5683 5678 5673 5668
5813 5813 5811 5809 5807 5805 5803 5801 5799 5796 5793 5792 5791 5789 5785 5780 5777 5774 5771 5768 5764 5760 5756 5752 5748 5744 5739 5735 5730 5725 5721 5716 5711 5706 5700 5695 5689 5684 5678 5673 5667 5661 5655 5650
5808 5808 5806 5804 5802 5799 5798 5795 5793 5790 5787 5784 5784 5782 5778 5773 5770 5767 5763 5760 5756 5752 5748 5744 5739 5735 5730 5725 5720 5714 5709 5704 5698 5693 5687 5681 5674 5668 5662 5655 5649 5643 5637 5631
5802 5802 5801 5799 5796 5794 5793 5790 5786 5784 5781 5778 5775 5778 5772 5767 5763 5759 5756 5752 5748 5744 5739 5735 5730 5724 5719 5714 5708 5702 5696 5690 5684 5678 5671 5665 5658 5650 5644 5637 5630 5623 5617 5610
5796 5796 5795 5793 5791 5788 5787 5784 5781 5779 5775 5771 5768 5771 5765 5760 5755 5752 5748 5744 5739 5735 5730 5724 5719 5713 5707 5701 5695 5689 5682 5676 5669 5662 5654 5647 5639 5631 5624 5617 5609 5602 5596 5589
5790 5790 5789 5787 5786 5783 5781 5778 5774 5771 5768 5765 5762 5765 5757 5752 5748 5744 5740 5735 5730 5725 5719 5713 5707 5701 5695 5688 5681 5674 5667 5659 5651 5643 5635 5627 5619 5610 5603 5595 5587 5580 5573 5567
5783 5783 5782 5781 5778 5775 5774 5772 5767 5763 5760 5758 5757 5754 5751 5745 5741 5736 5731 5726 5720 5714 5708 5701 5695 5688 5681 5673 5665 5658 5650 5641 5632 5624 5615 5607 5598 5589 5581 5573 5565 5557 5550 5543
5776 5776 5774 5773 5770 5767 5766 5764 5761 5757 5753 5750 5749 5745 5742 5737 5732 5727 5721 5716 5709 5703 5696 5689 5681 5674 5666 5657 5649 5640 5631 5622 5612 5603 5594 5585 5576 5567 5558 5550 5542 5534 5527 5520
5768 5767 5766 5766 5762 5759 5758 5756 5753 5750 5747 5743 5740 5737 5732 5727 5722 5716 5710 5703 5697 5689 5682 5674 5666 5658 5649 5640 5631 5621 5612 5602 5591 5582 5572 5562 5553 5545 5536 5527 5519 5512 5504 5498
5761 5759 5757 5757 5755 5752 5751 5749 5745 5742 5739 5736 5732 5728 5722 5717 5711 5704 5697 5690 5683 5675 5667 5659 5650 5640 5631 5621 5611 5601 5591 5580 5570 5560 5550 5540 5530 5522 5514 5505 5497 5490 5483 5477
5754 5751 5748 5747 5747 5745 5745 5740 5736 5733 5730 5727 5721 5716 5711 5705 5698 5691 5683 5676 5668 5660 5651 5642 5632 5622 5612 5601 5591 5581 5570 5559 5548 5538 5528 5518 5509 5501 5493 5485 5477 5470 5463 5457
5745 5743 5739 5737 5735 5735 5735 5731 5727 5723 5720 5716 5710 5705 5699 5692 5685 5678 5670 5661 5652 5643 5634 5624 5613 5603 5592 5581 5570 5559 5549 5537 5527 5517 5507 5498 5488 5480 5473 5465 5458 5451 5444 5438
5737 5734 5732 5728 5725 5724 5724 5720 5716 5713 5708 5703 5698 5692 5685 5678 5672 5666 5656 5646 5636 5626 5616 5605 5595 5583 5571 5560 5549 5538 5528 5517 5507 5497 5488 5479 5469 5461 5454 5447 5440 5433 5426 5420
5729 5725 5723 5720 5715 5714 5712 5708 5704 5701 5697 5690 5683 5677 5670 5663 5655 5647 5638 5628 5618 5608 5597 5586 5576 5564 5551 5539 5529 5519 5508 5498 5488 5479 5470 5461 5453 5444 5437 5430 5423 5416 5410 5404
5719 5717 5714 5710 5707 5706 5701 5697 5693 5688 5682 5676 5669 5662 5655 5647 5638 5630 5621 5611 5601 5590 5580 5568 5558 5547 5534 5521 5509 5501 5491 5481 5472 5463 5454 5446 5438 5429 5422 5415 5408 5401 5395 5389
5710 5708 5704 5701 5699 5694 5689 5685 5680 5674 5668 5661 5655 5647 5640 5632 5623 5614 5605 5595 5584 5573 5562 5550 5539 5529 5518 5505 5493 5482 5474 5464 5456 5448 5439 5431 5423 5415 5408 5400 5394 5387 5381 5375
5700 5696 5693 5689 5686 5681 5677 5672 5667 5661 5654 5647 5639 5632 5624 5616 5607 5598 5588 5577 5567 5556 5544 5532 5521 5511 5501 5491 5479 5467 5458 5449 5441 5433 5425 5417 5409 5402 5395 5387 5380 5374 5368 5362
5689 5684 5680 5678 5674 5669 5665 5659 5653 5647 5640 5632 5625 5617 5608 5600 5591 5581 5571 5560 5549 5538 5527 5515 5504 5494 5484 5475 5465 5454 5444 5435 5428 5420 5412 5404 5397 5389 5383 5376 5369 5362 5357 5349
5677 5672 5668 5666 5662 5657 5652 5646 5640 5633 5626 5618 5611 5602 5592 5582 5573 5564 5553 5542 5531 5521 5510 5500 5490 5479 5469 5460 5451 5441 5432 5423 5414 5407 5400 5392 5385 5378 5371 5365 5359 5352 5346 5340
Wind_Speed
11 12 12 13 13 14 14 14 15 17 17 17 18 18 17 17 17 18 18 19 18 18 18 19 20 22 23 24 25 26 27 29 31 33 34 36 37 38 39 40 42 44 46 48
10 11 12 13 13 14 14 14 14 16 18 18 18 18 16 16 16 17 18 19 19 19 19 20 21 22 24 25 26 28 29 30 32 34 36 36 38 38 40 42 44 46 48 50
10 11 12 13 13 13 14 14 14 14 16 18 18 17 16 15 15 16 17 18 19 20 21 22 23 24 25 26 27 29 30 32 33 35 36 38 39 40 42 44 46 47 49 51
11 12 12 12 13 13 14 15 15 14 15 16 18 18 17 16 16 17 17 19 20 21 23 24 24 25 26 27 28 30 31 32 34 35 37 38 40 41 43 46 47 49 51 52
12 12 13 13 13 14 15 16 15 15 15 16 17 18 19 18 18 18 19 20 21 22 23 25 26 27 27 28 29 31 32 33 34 36 38 39 41 42 44 46 48 50 51 53
13 13 13 14 14 15 16 17 17 16 16 16 17 18 20 20 20 20 20 21 22 24 25 26 27 28 29 30 31 32 33 34 36 37 39 40 42 44 45 47 49 51 53 54
14 14 14 15 16 16 17 18 19 18 17 17 18 19 20 22 22 22 23 23 24 25 26 27 27 28 30 31 32 33 35 36 38 40 41 43 44 46 48 49 51 53 54 56
14 15 16 16 17 18 18 19 20 21 20 18 19 19 21 23 24 24 24 24 24 25 26 27 29 31 32 33 35 37 38 40 41 43 45 47 48 50 51 53 55 56 57 59
16 16 17 18 18 19 20 20 22 23 23 21 19 19 21 24 25 25 25 25 26 27 29 30 32 34 35 37 39 40 42 43 45 47 48 50 52 54 56 57 59 60 61 62
18 18 18 19 20 20 21 22 23 24 26 26 22 20 23 25 25 27 28 29 29 30 32 34 35 37 39 41 43 45 47 48 50 52 53 55 57 59 60 62 63 64 65 65
20 19 19 20 20 21 22 23 25 26 27 28 27 22 24 25 27 29 31 32 33 35 36 38 40 42 44 46 48 50 51 53 55 57 59 60 62 63 65 66 67 67 68 68
22 21 19 21 22 23 23 24 26 27 27 28 28 24 25 28 30 32 34 35 37 40 41 43 45 47 49 51 53 55 57 59 61 63 65 66 67 69 69 70 70 70 70 70
23 23 22 22 24 25 24 25 27 29 28 27 27 26 28 31 33 35 37 39 42 44 46 48 50 52 54 57 59 61 63 65 67 68 69 70 71 72 73 73 72 72 72 71
25 24 25 25 26 27 26 26 28 29 30 29 28 28 29 33 36 38 40 43 46 48 50 53 55 57 60 62 64 67 69 70 71 72 73 74 74 75 75 74 74 73 72 71
27 26 26 26 28 29 27 25 27 29 30 32 31 32 34 37 39 41 44 47 49 51 54 57 60 62 65 67 69 71 73 74 75 75 76 76 76 76 76 75 74 73 72 71
29 29 29 28 29 30 27 26 28 29 31 33 35 36 38 41 43 46 48 51 53 56 58 62 64 67 69 72 74 75 76 77 78 78 78 78 77 76 75 73 72 71 70 69
30 31 32 30 29 30 28 28 30 31 33 35 37 39 42 44 47 50 52 55 58 61 63 66 69 71 73 75 77 79 79 80 80 79 79 78 76 74 72 71 70 68 67 67
30 31 33 33 31 30 29 31 32 34 36 38 41 43 46 48 51 54 57 59 62 65 68 70 73 75 77 79 80 81 81 81 80 79 77 75 73 71 69 68 66 66 65 63
30 32 34 35 34 32 30 34 36 38 40 41 44 46 49 52 55 57 60 63 66 69 71 74 76 79 80 82 82 82 81 79 78 75 73 70 69 67 65 63 62 61 60 59
31 33 35 36 37 37 36 38 39 42 43 45 48 50 53 56 59 60 63 67 69 72 75 77 79 81 82 82 82 80 78 76 74 71 69 66 64 62 60 59 58 58 57 56
31 34 35 36 39 40 41 42 43 45 48 50 52 55 58 60 63 66 68 71 73 76 78 80 81 81 81 80 79 77 74 72 70 67 64 62 59 58 57 56 55 55 54 53
33 34 35 38 40 42 43 45 46 49 51 54 56 59 62 64 67 69 71 73 75 77 79 80 81 80 78 76 75 73 70 68 65 63 60 57 56 55 54 54 53 52 51 49
34 35 38 40 42 44 46 47 49 52 55 57 60 63 65 67 69 72 73 75 77 78 79 80 79 77 74 72 71 69 66 64 61 59 56 55 53 52 52 52 50 49 47 46
35 38 41 43 44 46 48 50 52 55 58 61 63 65 68 70 72 73 75 76 77 78 78 77 76 74 70 68 66 65 63 61 59 57 55 53 52 51 50 49 47 46 45 44
37 41 43 45 46 49 50 53 55 58 60 63 65 67 69 72 73 75 76 77 77 76 75 74 72 70 68 65 63 61 60 59 57 55 53 51 49 48 46 45 44 43 42 42
40 44 46 47 48 51 53 55 57 60 62 64 67 69 70 72 74 75 76 76 75 74 72 70 69 67 65 63 60 58 58 57 55 53 50 48 46 45 44 42 41 41 41 40
Wind_Direction
290 292 295 297 296 294 293 292 292 295 298 300 299 301 304 305 305 306 306 305 303 300 298 296 293 291 289 287 285 283 281 279 279 279 278 277 277 276 276 275 274 274 274 275
289 292 296 298 298 296 295 296 298 302 304 304 303 305 309 310 310 309 307 305 304 304 302 300 297 294 292 289 287 286 284 282 280 280 279 280 279 279 278 277 276 275 276 277
286 290 294 296 297 299 301 302 303 304 304 304 305 307 311 311 308 306 306 306 306 306 304 301 299 296 294 291 290 288 287 285 284 282 282 281 280 280 279 278 278 278 279 279
285 290 293 295 298 302 303 305 307 308 305 304 306 308 310 310 306 306 307 307 307 306 305 303 300 298 296 294 292 290 288 287 286 285 284 284 283 282 281 281 280 280 280 280
285 290 293 297 301 303 304 305 307 309 309 308 308 308 308 307 306 308 309 308 307 306 305 304 302 300 298 297 295 294 292 291 290 288 287 286 285 284 283 283 282 282 281 281
283 287 291 295 299 300 302 303 306 308 309 307 306 306 305 307 309 311 311 309 307 305 305 303 302 301 301 300 299 298 297 295 294 293 291 290 288 287 286 285 285 284 283 283
283 286 289 293 296 298 301 303 305 306 307 308 308 308 307 308 309 310 309 308 306 305 305 304 304 303 303 303 302 301 299 298 296 295 293 292 291 289 288 287 286 286 285 284
281 285 288 291 293 296 299 303 304 306 307 309 309 309 308 306 305 306 307 308 308 307 306 306 306 306 305 304 303 301 300 299 297 296 295 294 293 291 290 289 288 287 286 285
279 281 285 288 292 296 299 302 304 305 306 307 307 307 302 301 304 307 310 311 311 309 308 308 307 306 305 304 302 301 300 299 298 297 296 295 294 292 291 290 289 288 287 286
280 282 285 288 291 294 299 302 304 305 306 307 308 310 306 306 308 310 313 313 311 309 308 307 306 305 305 304 303 302 301 300 299 298 297 296 294 293 292 291 290 289 288 287
281 283 284 287 289 293 297 300 301 302 303 304 306 313 309 308 308 310 312 311 310 309 308 308 307 306 305 304 303 303 302 301 300 299 297 296 295 293 292 291 290 289 288 287
281 282 283 285 288 291 294 297 298 298 299 302 305 313 310 307 308 310 310 310 309 309 309 307 306 306 305 304 303 303 302 301 300 299 298 297 295 294 293 292 291 290 289 288
280 282 283 285 287 289 293 295 295 295 296 299 303 309 307 306 308 309 309 308 308 308 307 307 306 305 305 304 303 303 302 301 300 299 298 297 296 295 294 293 292 291 290 288
280 281 284 287 288 290 293 295 294 294 296 298 303 304 304 305 307 307 306 306 306 306 306 305 305 305 304 304 303 303 302 301 300 299 298 297 296 296 295 294 293 292 290 288
280 281 284 286 288 289 292 290 288 290 294 298 302 303 304 305 305 305 305 305 305 305 305 305 305 305 304 303 303 303 302 302 301 300 299 298 297 296 296 295 293 292 290 288
281 283 284 285 287 289 290 287 286 288 292 297 300 302 304 305 305 305 305 305 306 306 306 305 305 305 304 304 304 304 303 302 302 301 300 299 299 298 297 295 294 292 290 289
279 282 283 285 285 286 286 285 286 288 292 297 299 301 302 303 304 305 305 306 306 306 306 306 306 306 305 305 305 305 304 303 302 302 301 300 299 299 298 296 294 293 291 290
279 281 283 286 286 285 287 286 288 291 294 298 299 300 302 304 305 305 306 306 306 306 306 306 306 306 306 306 306 305 305 304 304 303 302 301 300 299 298 296 295 294 293 292
280 283 285 288 288 287 286 288 292 295 297 299 300 302 303 304 305 305 306 306 306 307 307 307 307 307 307 307 307 307 306 306 305 305 304 303 301 300 299 298 297 295 294 293
280 282 284 287 288 290 292 292 295 297 299 300 302 303 304 304 304 305 306 306 307 307 308 308 308 308 308 308 308 307 307 307 306 306 305 304 303 301 300 299 298 297 296 294
278 280 283 285 287 290 293 296 298 300 302 303 303 304 304 305 306 307 307 308 308 308 308 309 309 309 309 309 309 309 309 308 308 308 307 305 304 303 302 301 301 300 298 296
280 281 283 285 288 291 294 297 299 301 302 302 303 304 305 306 307 307 308 308 308 308 309 309 310 310 310 310 310 310 310 309 309 309 308 306 306 305 304 303 302 301 299 298
281 283 285 287 290 293 295 298 300 301 302 303 304 305 305 306 306 307 307 307 308 309 309 310 311 311 311 311 311 311 311 310 310 310 309 308 307 306 305 304 303 302 301 300
284 285 286 288 291 294 296 299 300 301 302 303 304 304 305 306 306 306 307 307 308 309 310 311 311 312 312 312 311 311 311 311 311 311 310 309 308 308 307 306 305 304 303 302
286 286 287 289 293 295 297 298 300 301 302 302 303 304 304 305 305 306 307 308 309 310 311 312 313 313 313 313 312 311 311 311 312 312 312 311 310 310 308 307 306 306 305 304
286 287 289 291 293 295 297 298 299 300 300 301 302 303 304 305 306 307 308 309 310 311 312 312 313 313 313 313 313 312 311 312 312 313 313 313 312 311 310 309 308 307 307 306